Date,TemperatureHighF,TemperatureAvgF,TemperatureLowF,DewpointHighF,DewpointAvgF,DewpointLowF,HumidityHigh,HumidityAvg,HumidityLow,PressureMaxIn,PressureMinIn,WindSpeedMaxMPH,WindSpeedAvgMPH,GustSpeedMaxMPH,PrecipitationSumIn
2013-4-1,57.5,46.1,34.4,44.0,33.9,14.4,96,64,40,29.97,29.71,28,4,32,0.00
2013-4-2,46.2,38.1,30.3,16.3,11.9,8.1,47,34,23,30.16,29.96,25,4,28,0.00
2013-4-3,49.4,37.2,26.6,17.5,12.8,8.4,55,38,20,30.36,30.15,26,3,26,0.00
2013-4-4,48.9,36.4,19.9,30.1,12.7,8.1,72,40,19,30.38,29.98,18,3,18,0.00
2013-4-5,65.0,48.9,32.9,36.3,26.6,10.9,93,49,22,30.07,29.79,23,3,23,0.00
2013-4-6,55.7,43.9,29.0,23.7,17.6,11.6,69,37,18,30.28,30.03,18,2,19,0.00
2013-4-7,70.9,56.0,38.5,41.5,34.9,23.1,69,46,28,30.17,29.89,33,8,39,0.00
2013-4-8,80.5,68.1,50.7,46.9,42.7,39.9,72,42,24,30.01,29.86,22,4,25,0.00
2013-4-9,87.4,74.7,64.5,55.1,49.5,44.2,57,42,26,30.02,29.86,23,4,23,0.00
2013-4-10,92.1,83.4,64.3,56.2,51.9,48.7,57,35,24,29.90,29.70,25,4,25,0.00
2013-4-11,83.8,76.4,57.5,58.8,54.7,49.5,85,49,37,29.82,29.63,19,4,19,0.00
2013-4-12,70.4,58.5,51.0,62.8,51.9,35.8,100,81,39,29.74,29.51,25,3,25,0.55
2013-4-13,68.9,57.6,46.5,37.1,30.7,21.8,64,38,22,29.92,29.74,25,4,25,0.00
2013-4-14,66.3,54.3,37.0,38.5,33.9,27.2,79,48,28,30.10,29.91,16,2,16,0.00
2013-4-15,63.9,58.1,53.5,50.8,45.1,36.1,79,62,49,30.19,30.04,23,4,23,0.00
2013-4-17,69.3,65.1,56.7,63.2,57.9,54.2,100,78,69,30.16,30.11,13,3,13,0.11
2013-4-18,62.0,61.8,61.6,55.6,55.1,54.2,80,79,76,30.15,30.13,13,1,13,0.00
2013-4-22,54.7,49.3,32.7,34.2,32.1,28.2,84,52,38,30.53,30.35,18,4,18,0.00
2013-4-23,56.6,45.8,31.9,43.5,37.1,27.9,91,72,58,30.36,30.06,12,2,13,0.00
2013-4-24,78.3,59.2,39.5,58.4,47.7,37.0,99,69,38,30.06,29.70,32,4,32,0.04
2013-4-25,62.4,52.8,44.1,39.9,29.5,20.2,67,43,25,30.27,30.01,24,3,24,0.00
2013-4-26,64.7,53.4,37.8,37.1,33.1,27.2,84,49,25,30.42,30.26,16,2,16,0.00
2013-4-27,69.1,53.8,34.6,44.2,37.3,31.0,93,58,31,30.37,30.20,16,2,16,0.00
2013-4-28,56.6,51.3,43.6,49.4,44.5,38.3,92,78,55,30.20,30.06,20,2,20,0.12
2013-4-29,60.1,55.2,51.6,55.2,52.0,45.8,96,89,78,30.07,29.97,14,2,14,0.00
2013-4-30,58.0,55.1,52.6,56.1,53.4,51.5,99,94,85,30.25,30.05,11,2,12,0.01